FENGYUN 1C DEB

Satellite information

Favourite Embed

Satellite Type and Status

DEBRISIN ORBIT

Key statistics

Satellite FENGYUN 1C DEB at a glance.

Uptime

9661

Days in orbit

Revolutions

≈ 14.0

Per day

Orbit

SSO

Sun Synchronous Orbit

Inclination

98.9

Latest

Satellite identification and parameters

Extended collection of information and parameters for FENGYUN 1C DEB.

Object identification

Identified? True

Debris? True

Object name: FENGYUN 1C DEB

International designator: 1999-025DPQ

Object number (NORAD): 35208

Object ID (CCSDS): 35208

Country: PEOPLES REPUBLIC OF CHINA (PRC)

Current information (Y/N): Y

RCS size: SMALL

Orbital parameters

Period: 102.901 minutes

Inclination: 98.9086 deg

SMA: 7273.993 km

Apoapsis: 967.458 km

Periapsis: 824.259 km

RAAN: 311.0566 deg

Eccentricy: 0.00984327

Argument of periapsis: 312.733 deg

Mean anomaly: 46.558 deg

Mean motion: 13.99404946 rev/day

Mean motion (dot): 0.00002014 rev/day2

B* drag term: 0.0013561393 1/REarth

Two-line elements (TLE)

Creation date: Oct. 18, 2025, 2:17 a.m.

Reference frame: TEME

Reference center: EARTH

Epoch: Oct. 17, 2025, 8 a.m. UTC

TLE line 0: 0 FENGYUN 1C DEB

TLE line 1: 1 35208U 99025DPQ 25290.33389419 .00002014 00000-0 13561-2 0 9996

TLE line 2: 2 35208 98.9086 311.0566 0098433 312.7330 46.5580 13.99404946897740

Live tracking on map

Real-time ground track for satellite FENGYUN 1C DEB.

In-orbit conjunctions

A list of the most updated potential collisions computed for object FENGYUN 1C DEB.

Target Orbit TCA Probability of collision Miss distance Type
COSMOS 2237 LEO 2025-10-06 13:05:08 0.0006885941 170.0 (m) PAYLOAD
SL-8 R/B LEO 2025-04-05 03:48:15 0.000890086 154.0 (m) ROCKET BODY

Associated space launch

Chinese polar orbiting meteorological satellite

FENGYUN 1C DEB was lifted into orbit during the mission ‘Long March 4B | Feng Yun 1C’, on board a Long March 4B space rocket.

The launch took place on May 10, 1999, 1:33 a.m. from Launch Complex 7.

For more information about the launch, click the button.

Launch to space Long March 4B | Feng Yun 1C
Long March 4B | Feng Yun 1C

Agency: N/A

Status: Launch Successful

Launch date: May 10, 1999, 1:33 a.m. UTC

Rocket: Long March 4B

Launch pad: Launch Complex 7

Location: Taiyuan Satellite Launch Center, People's Republic of China

...

Latest news about this satellite

There are no fresh news available about this satellite. Check back as we update our databases every day.


Newsletter sign-up

Weekly statistics, charts and insights to help you stay on top of the space industry.